| time (UTC) | temp C | wind direction | speed KPH | gust KPH | rain 1hr cm | rain 24hr cm | rain mn cm | humidity % | barometer mb |
| 20260831124516 | 23 | 232 | 9.7 | 38.6 | 0.00 | 0.41 | 0.41 | 49 | 1014.4 |
| 20260831123015 | 23 | 263 | 12.9 | 32.2 | 0.00 | 0.41 | 0.41 | 50 | 1014.4 |
| 20260831121519 | 22 | 243 | 4.8 | 24.1 | 0.00 | 0.41 | 0.41 | 54 | 1014.5 |
| 20260831120018 | 23 | 252 | 11.3 | 35.4 | 0.00 | 0.41 | 0.41 | 54 | 1014.5 |
| 20260831114509 | 23 | 236 | 8.0 | 25.7 | 0.00 | 0.41 | 0.41 | 55 | 1014.6 |
| 20260831113008 | 21 | 240 | 3.2 | 30.6 | 0.00 | 0.41 | 0.41 | 59 | 1014.7 |
| 20260831111505 | 22 | 257 | 9.7 | 32.2 | 0.00 | 0.41 | 0.41 | 56 | 1014.7 |
| 20260831110004 | 22 | 243 | 6.4 | 40.2 | 0.00 | 0.41 | 0.41 | 56 | 1014.6 |
| 20260831104506 | 22 | 239 | 4.8 | 20.9 | 0.00 | 0.41 | 0.41 | 55 | 1014.6 |
| 20260831103104 | 22 | 250 | 8.0 | 32.2 | 0.00 | 0.41 | 0.41 | 57 | 1014.6 |
| 20260831101559 | 21 | 249 | 8.0 | 25.7 | 0.00 | 0.41 | 0.41 | 58 | 1014.6 |
| 20260831100103 | 21 | 244 | 8.0 | 38.6 | 0.00 | 0.41 | 0.41 | 59 | 1014.7 |
| 20260831094558 | 21 | 228 | 12.9 | 32.2 | 0.00 | 0.41 | 0.41 | 58 | 1014.7 |
| 20260831093054 | 21 | 253 | 11.3 | 32.2 | 0.00 | 0.41 | 0.41 | 60 | 1014.7 |
| 20260831091649 | 20 | 234 | 16.1 | 43.5 | 0.00 | 0.41 | 0.41 | 63 | 1014.7 |
| 20260831090046 | 21 | 240 | 8.0 | 29.0 | 0.00 | 0.41 | 0.41 | 64 | 1014.5 |
| 20260831084550 | 20 | 242 | 11.3 | 25.7 | 0.00 | 0.41 | 0.41 | 69 | 1014.6 |
| 20260831083047 | 20 | 258 | 4.8 | 19.3 | 0.00 | 0.41 | 0.41 | 72 | 1014.4 |
| 20260831081544 | 20 | 284 | 8.0 | 29.0 | 0.00 | 0.41 | 0.41 | 75 | 1014.3 |
| 20260831080034 | 20 | 286 | 6.4 | 19.3 | 0.00 | 0.41 | 0.41 | 77 | 1014.2 |
| 20260831074540 | 19 | 280 | 3.2 | 20.9 | 0.00 | 0.41 | 0.41 | 81 | 1014.2 |
| 20260831073058 | 19 | 255 | 6.4 | 17.7 | 0.00 | 0.41 | 0.41 | 82 | 1014.2 |
| 20260831071526 | 18 | 261 | 0.0 | 11.3 | 0.00 | 0.41 | 0.41 | 86 | 1014.1 |
| 20260831070031 | 18 | 264 | 4.8 | 12.9 | 0.00 | 0.41 | 0.41 | 87 | 1014.1 |
| 20260831064531 | 17 | 249 | 0.0 | 0.0 | 0.00 | 0.41 | 0.41 | 89 | 1014.0 |
| 20260831063021 | 17 | 254 | 0.0 | 1.6 | 0.00 | 0.41 | 0.41 | 90 | 1013.9 |
| 20260831061520 | 17 | 254 | 0.0 | 0.0 | 0.00 | 0.41 | 0.41 | 91 | 1013.6 |
| 20260831060013 | 17 | 254 | 0.0 | 0.0 | 0.00 | 0.41 | 0.41 | 92 | 1013.5 |
| 20260831054510 | 17 | 254 | 0.0 | 0.0 | 0.00 | 0.41 | 0.41 | 92 | 1013.5 |
| 20260831053017 | 17 | 254 | 0.0 | 0.0 | 0.00 | 0.41 | 0.41 | 92 | 1013.3 |
| 20260831051513 | 17 | 254 | 0.0 | 3.2 | 0.00 | 0.41 | 0.41 | 92 | 1013.3 |
| 20260831050014 | 17 | 254 | 0.0 | 0.0 | 0.08 | 0.41 | 0.41 | 91 | 1013.3 |
| 20260831044502 | 17 | 254 | 0.0 | 0.0 | 0.08 | 0.41 | 0.41 | 91 | 1013.2 |
| 20260831043100 | 17 | 254 | 0.0 | 16.1 | 0.08 | 0.41 | 0.41 | 91 | 1013.0 |
| 20260831041604 | 17 | 256 | 0.0 | 6.4 | 0.08 | 0.41 | 0.41 | 90 | 1012.9 |
| 20260831040057 | 17 | 256 | 0.0 | 0.0 | 0.00 | 0.33 | 0.33 | 90 | 1012.6 |
| 20260831034556 | 17 | 256 | 0.0 | 0.0 | 0.00 | 0.33 | 0.33 | 90 | 1012.6 |
| 20260831033056 | 17 | 256 | 1.6 | 17.7 | 0.00 | 0.33 | 0.33 | 89 | 1012.6 |
| 20260831031556 | 17 | 239 | 0.0 | 0.0 | 0.00 | 0.33 | 0.33 | 89 | 1012.5 |
| 20260831030058 | 17 | 221 | 0.0 | 16.1 | 0.00 | 0.33 | 0.33 | 89 | 1012.4 |
| 20260831024555 | 17 | 240 | 4.8 | 24.1 | 0.00 | 0.33 | 0.33 | 89 | 1012.4 |
| 20260831023051 | 17 | 213 | 0.0 | 4.8 | 0.03 | 0.33 | 0.33 | 89 | 1011.9 |
| 20260831021550 | 17 | 213 | 0.0 | 19.3 | 0.03 | 0.33 | 0.33 | 89 | 1011.6 |
| 20260831020050 | 17 | 212 | 1.6 | 9.7 | 0.03 | 0.33 | 0.33 | 89 | 1011.7 |
| 20260831014551 | 17 | 177 | 1.6 | 16.1 | 0.05 | 0.33 | 0.33 | 89 | 1011.8 |
| 20260831013042 | 17 | 189 | 3.2 | 19.3 | 0.15 | 0.30 | 0.30 | 89 | 1012.0 |
| 20260831011541 | 17 | 165 | 0.0 | 9.7 | 0.30 | 0.30 | 0.30 | 89 | 1012.0 |
| 20260831010039 | 17 | 206 | 0.0 | 8.0 | 0.30 | 0.30 | 0.30 | 89 | 1011.8 |
| 20260831004540 | 17 | 240 | 0.0 | 12.9 | 0.25 | 0.25 | 0.25 | 88 | 1011.6 |
| 20260831003037 | 17 | 253 | 1.6 | 37.0 | 0.15 | 0.15 | 0.15 | 86 | 1012.0 |
| 20260831001535 | 16 | 272 | 0.0 | 0.0 | 0.00 | 0.00 | 0.00 | 87 | 1010.5 |
| 20260831000030 | 15 | 272 | 0.0 | 0.0 | 0.00 | 0.00 | 0.00 | 87 | 1010.3 |
| 20260830234528 | 15 | 272 | 0.0 | 0.0 | 0.00 | 0.00 | 0.00 | 88 | 1010.5 |
| 20260830233035 | 15 | 272 | 0.0 | 0.0 | 0.00 | 0.00 | 0.00 | 88 | 1010.7 |
| 20260830231526 | 15 | 272 | 0.0 | 0.0 | 0.00 | 0.00 | 0.00 | 88 | 1010.7 |
| 20260830230025 | 15 | 272 | 0.0 | 0.0 | 0.00 | 0.00 | 0.00 | 87 | 1011.0 |
| 20260830224522 | 15 | 272 | 0.0 | 0.0 | 0.00 | 0.00 | 0.00 | 87 | 1011.2 |
| 20260830223021 | 15 | 272 | 0.0 | 0.0 | 0.00 | 0.00 | 0.00 | 87 | 1011.2 |
| 20260830221516 | 15 | 272 | 0.0 | 0.0 | 0.00 | 0.00 | 0.00 | 86 | 1011.4 |
| 20260830220027 | 16 | 272 | 0.0 | 0.0 | 0.00 | 0.00 | 0.00 | 86 | 1011.5 |
| 20260830214513 | 16 | 272 | 0.0 | 0.0 | 0.00 | 0.00 | 0.00 | 85 | 1011.6 |
| 20260830213015 | 16 | 272 | 0.0 | 0.0 | 0.00 | 0.00 | 0.00 | 83 | 1011.7 |
| 20260830211508 | 16 | 272 | 0.0 | 0.0 | 0.00 | 0.00 | 0.00 | 82 | 1011.5 |
| 20260830210012 | 17 | 272 | 0.0 | 0.0 | 0.00 | 0.00 | 0.00 | 80 | 1011.6 |
| 20260830204505 | 17 | 272 | 0.0 | 0.0 | 0.00 | 0.00 | 0.00 | 80 | 1011.6 |
| 20260830203004 | 17 | 272 | 0.0 | 0.0 | 0.00 | 0.00 | 0.00 | 81 | 1011.5 |
| 20260830201501 | 17 | 272 | 0.0 | 0.0 | 0.00 | 0.00 | 0.00 | 79 | 1011.7 |
| 20260830200103 | 17 | 272 | 0.0 | 0.0 | 0.00 | 0.00 | 0.00 | 79 | 1011.9 |
| 20260830194558 | 18 | 272 | 0.0 | 0.0 | 0.00 | 0.00 | 0.00 | 77 | 1011.9 |
| 20260830193057 | 18 | 272 | 0.0 | 0.0 | 0.00 | 0.00 | 0.00 | 77 | 1011.8 |
| 20260830191620 | 18 | 272 | 0.0 | 0.0 | 0.00 | 0.00 | 0.00 | 75 | 1011.9 |
| 20260830190109 | 20 | 272 | 0.0 | 0.0 | 0.00 | 0.00 | 0.00 | 72 | 1011.9 |
| 20260830184557 | 20 | 272 | 0.0 | 0.0 | 0.00 | 0.00 | 0.00 | 70 | 1011.9 |
| 20260830183054 | 20 | 272 | 0.0 | 0.0 | 0.00 | 0.00 | 0.00 | 68 | 1011.7 |
| 20260830181553 | 21 | 272 | 0.0 | 0.0 | 0.00 | 0.00 | 0.00 | 63 | 1011.6 |
| 20260830180055 | 22 | 272 | 0.0 | 0.0 | 0.00 | 0.00 | 0.00 | 58 | 1011.5 |
| 20260830174556 | 23 | 272 | 0.0 | 0.0 | 0.00 | 0.00 | 0.00 | 57 | 1011.7 |
| 20260830173052 | 23 | 272 | 0.0 | 4.8 | 0.00 | 0.00 | 0.00 | 56 | 1011.7 |
| 20260830171552 | 24 | 262 | 0.0 | 8.0 | 0.00 | 0.00 | 0.00 | 54 | 1011.7 |
| 20260830170049 | 25 | 273 | 0.0 | 16.1 | 0.00 | 0.00 | 0.00 | 50 | 1011.7 |
| 20260830164549 | 25 | 270 | 0.0 | 17.7 | 0.00 | 0.00 | 0.00 | 57 | 1011.6 |
| 20260830163048 | 25 | 279 | 0.0 | 4.8 | 0.00 | 0.00 | 0.00 | 58 | 1011.7 |
| 20260830161559 | 25 | 280 | 1.6 | 14.5 | 0.00 | 0.00 | 0.00 | 59 | 1011.8 |
| 20260830160048 | 24 | 282 | 1.6 | 8.0 | 0.00 | 0.00 | 0.00 | 59 | 1011.7 |
| 20260830154545 | 25 | 242 | 0.0 | 9.7 | 0.00 | 0.00 | 0.00 | 59 | 1011.7 |
| 20260830153044 | 25 | 263 | 4.8 | 24.1 | 0.00 | 0.00 | 0.00 | 59 | 1011.8 |
| 20260830151542 | 25 | 262 | 1.6 | 12.9 | 0.00 | 0.00 | 0.00 | 58 | 1011.8 |
| 20260830150044 | 25 | 260 | 1.6 | 11.3 | 0.00 | 0.00 | 0.00 | 59 | 1012.0 |
| 20260830144545 | 25 | 211 | 1.6 | 19.3 | 0.00 | 0.00 | 0.00 | 59 | 1012.0 |
| 20260830143042 | 24 | 288 | 0.0 | 17.7 | 0.00 | 0.00 | 0.00 | 60 | 1012.1 |
| 20260830141540 | 24 | 255 | 6.4 | 22.5 | 0.00 | 0.00 | 0.00 | 60 | 1012.2 |
| 20260830140037 | 24 | 302 | 1.6 | 25.7 | 0.00 | 0.00 | 0.00 | 61 | 1012.3 |
| 20260830134538 | 23 | 277 | 1.6 | 20.9 | 0.00 | 0.00 | 0.00 | 62 | 1012.5 |
| 20260830133031 | 23 | 275 | 3.2 | 22.5 | 0.00 | 0.00 | 0.00 | 63 | 1012.6 |
| 20260830131548 | 23 | 288 | 0.0 | 20.9 | 0.00 | 0.00 | 0.00 | 66 | 1012.9 |
| 20260830130030 | 22 | 287 | 0.0 | 12.9 | 0.00 | 0.00 | 0.00 | 65 | 1013.0 |